Time,TemperatureF,DewpointF,PressureIn,WindDirection,WindDirectionDegrees,WindSpeedMPH,WindSpeedGustMPH,Humidity,HourlyPrecipIn,Conditions,Clouds,dailyrainin,SoftwareType,DateUTC
2013-02-20 00:05:00,42.0,-99.9,30.01,SE,128,3.0,4.0,-999,-99.99,,,-99.99,,2013-02-20 08:05:00,
2013-02-20 00:11:00,42.0,-99.9,30.02,SE,137,4.0,5.0,-999,-99.99,,,-99.99,,2013-02-20 08:11:00,
2013-02-20 00:22:00,42.0,-99.9,30.02,South,188,3.0,5.0,-999,-99.99,,,-99.99,,2013-02-20 08:22:00,
2013-02-20 00:32:00,41.0,-99.9,30.02,South,187,2.0,4.0,-999,-99.99,,,-99.99,,2013-02-20 08:32:00,
2013-02-20 00:42:00,41.0,-99.9,30.03,SSW,211,5.0,6.0,-999,-99.99,,,-99.99,,2013-02-20 08:42:00,
2013-02-20 00:52:00,41.0,-99.9,30.03,SSW,204,4.0,5.0,-999,-99.99,,,-99.99,,2013-02-20 08:52:00,
2013-02-20 01:02:00,40.0,-99.9,30.03,South,169,3.0,4.0,-999,-99.99,,,-99.99,,2013-02-20 09:02:00,
2013-02-20 01:11:00,40.0,-99.9,30.03,South,175,3.0,4.0,-999,-99.99,,,-99.99,,2013-02-20 09:11:00,
2013-02-20 01:22:00,41.0,-99.9,30.03,SE,141,3.0,4.0,-999,-99.99,,,-99.99,,2013-02-20 09:22:00,
2013-02-20 01:32:00,41.0,-99.9,30.03,SSE,152,3.0,4.0,-999,-99.99,,,-99.99,,2013-02-20 09:32:00,
2013-02-20 01:42:00,40.0,-99.9,30.03,SSE,168,4.0,4.0,-999,-99.99,,,-99.99,,2013-02-20 09:42:00,
2013-02-20 01:52:00,40.0,-99.9,30.03,SSE,158,2.0,4.0,-999,-99.99,,,-99.99,,2013-02-20 09:52:00,
2013-02-20 02:01:00,40.0,-99.9,30.03,SSE,163,2.0,3.0,-999,-99.99,,,-99.99,,2013-02-20 10:01:00,
2013-02-20 02:12:00,40.0,-99.9,30.03,SSE,166,3.0,4.0,-999,-99.99,,,-99.99,,2013-02-20 10:12:00,
2013-02-20 02:22:00,40.0,-99.9,30.03,South,175,4.0,5.0,-999,-99.99,,,-99.99,,2013-02-20 10:22:00,
2013-02-20 02:32:00,39.0,-99.9,30.03,South,179,3.0,4.0,-999,-99.99,,,-99.99,,2013-02-20 10:32:00,
2013-02-20 02:42:00,39.0,-99.9,30.04,South,173,3.0,5.0,-999,-99.99,,,-99.99,,2013-02-20 10:42:00,
2013-02-20 02:52:00,38.0,-99.9,30.04,South,182,2.0,4.0,-999,-99.99,,,-99.99,,2013-02-20 10:52:00,
2013-02-20 03:02:00,38.0,-99.9,30.04,South,174,2.0,3.0,-999,-99.99,,,-99.99,,2013-02-20 11:02:00,
2013-02-20 03:11:00,40.0,-99.9,30.04,ESE,106,3.0,5.0,-999,-99.99,,,-99.99,,2013-02-20 11:11:00,
2013-02-20 03:22:00,40.0,-99.9,30.04,South,170,3.0,4.0,-999,-99.99,,,-99.99,,2013-02-20 11:22:00,
2013-02-20 03:32:00,39.0,-99.9,30.05,South,189,2.0,3.0,-999,-99.99,,,-99.99,,2013-02-20 11:32:00,
2013-02-20 03:42:00,39.0,-99.9,30.05,SSE,159,2.0,2.0,-999,-99.99,,,-99.99,,2013-02-20 11:42:00,
2013-02-20 03:52:00,39.0,-99.9,30.05,SSE,163,3.0,3.0,-999,-99.99,,,-99.99,,2013-02-20 11:52:00,
2013-02-20 04:02:00,39.0,-99.9,30.04,SSE,165,4.0,5.0,-999,-99.99,,,-99.99,,2013-02-20 12:02:00,
2013-02-20 04:12:00,39.0,-99.9,30.04,South,169,5.0,6.0,-999,-99.99,,,-99.99,,2013-02-20 12:12:00,
2013-02-20 04:22:00,39.0,-99.9,30.05,SSE,167,4.0,5.0,-999,-99.99,,,-99.99,,2013-02-20 12:22:00,
2013-02-20 04:32:00,39.0,-99.9,30.05,SSE,153,3.0,4.0,-999,-99.99,,,-99.99,,2013-02-20 12:32:00,
2013-02-20 04:42:00,39.0,-99.9,30.04,SE,141,4.0,5.0,-999,-99.99,,,-99.99,,2013-02-20 12:42:00,
2013-02-20 04:53:00,39.0,-99.9,30.05,SE,125,4.0,6.0,-999,-99.99,,,-99.99,,2013-02-20 12:53:00,
2013-02-20 05:02:00,39.0,-99.9,30.05,ESE,116,4.0,6.0,-999,-99.99,,,-99.99,,2013-02-20 13:02:00,
2013-02-20 05:12:00,39.0,-99.9,30.05,ESE,120,4.0,6.0,-999,-99.99,,,-99.99,,2013-02-20 13:12:00,
2013-02-20 05:22:00,39.0,-99.9,30.05,ESE,116,4.0,6.0,-999,-99.99,,,-99.99,,2013-02-20 13:22:00,
2013-02-20 05:32:00,39.0,-99.9,30.05,ESE,117,4.0,6.0,-999,-99.99,,,-99.99,,2013-02-20 13:32:00,
2013-02-20 05:42:00,38.0,-99.9,30.06,ESE,109,5.0,6.0,-999,-99.99,,,-99.99,,2013-02-20 13:42:00,
2013-02-20 06:01:00,38.0,-99.9,30.05,ESE,102,5.0,8.0,-999,-99.99,,,-99.99,,2013-02-20 14:01:00,
2013-02-20 06:11:00,39.0,-99.9,30.06,SSE,155,4.0,5.0,-999,-99.99,,,-99.99,,2013-02-20 14:11:00,
2013-02-20 06:22:00,38.0,-99.9,30.06,South,169,5.0,6.0,-999,-99.99,,,-99.99,,2013-02-20 14:22:00,
2013-02-20 06:32:00,38.0,-99.9,30.06,South,177,4.0,6.0,-999,-99.99,,,-99.99,,2013-02-20 14:32:00,
2013-02-20 06:42:00,38.0,-99.9,30.05,SSE,165,4.0,7.0,-999,-99.99,,,-99.99,,2013-02-20 14:42:00,
2013-02-20 06:52:00,38.0,-99.9,30.05,South,172,6.0,8.0,-999,-99.99,,,-99.99,,2013-02-20 14:52:00,
2013-02-20 07:02:00,39.0,-99.9,30.05,ESE,121,4.0,6.0,-999,-99.99,,,-99.99,,2013-02-20 15:02:00,
2013-02-20 07:12:00,39.0,-99.9,30.05,SE,139,4.0,6.0,-999,-99.99,,,-99.99,,2013-02-20 15:12:00,
2013-02-20 07:22:00,39.0,-99.9,30.05,SSE,155,5.0,8.0,-999,-99.99,,,-99.99,,2013-02-20 15:22:00,
2013-02-20 07:32:00,39.0,-99.9,30.05,South,171,4.0,6.0,-999,-99.99,,,-99.99,,2013-02-20 15:32:00,
2013-02-20 07:42:00,39.0,-99.9,30.05,SE,140,4.0,6.0,-999,-99.99,,,-99.99,,2013-02-20 15:42:00,
2013-02-20 07:52:00,39.0,-99.9,30.05,ESE,118,6.0,8.0,-999,-99.99,,,-99.99,,2013-02-20 15:52:00,
2013-02-20 08:01:00,39.0,-99.9,30.05,SE,124,5.0,9.0,-999,-99.99,,,-99.99,,2013-02-20 16:01:00,
2013-02-20 08:12:00,40.0,-99.9,30.04,SE,134,5.0,8.0,-999,-99.99,,,-99.99,,2013-02-20 16:12:00,
2013-02-20 08:22:00,40.0,-99.9,30.04,ESE,119,4.0,7.0,-999,-99.99,,,-99.99,,2013-02-20 16:22:00,
2013-02-20 08:32:00,40.0,-99.9,30.04,ESE,120,5.0,6.0,-999,-99.99,,,-99.99,,2013-02-20 16:32:00,
2013-02-20 08:42:00,40.0,-99.9,30.04,ESE,118,4.0,5.0,-999,-99.99,,,-99.99,,2013-02-20 16:42:00,
2013-02-20 08:52:00,40.0,-99.9,30.04,SSE,151,4.0,5.0,-999,-99.99,,,-99.99,,2013-02-20 16:52:00,
2013-02-20 09:01:00,40.0,-99.9,30.04,SSE,166,6.0,10.0,-999,-99.99,,,-99.99,,2013-02-20 17:01:00,
2013-02-20 09:12:00,40.0,-99.9,30.04,SE,132,7.0,10.0,-999,-99.99,,,-99.99,,2013-02-20 17:12:00,
2013-02-20 09:21:00,40.0,-99.9,30.04,SSE,155,6.0,9.0,-999,-99.99,,,-99.99,,2013-02-20 17:21:00,
2013-02-20 09:32:00,40.0,-99.9,30.04,SSE,165,7.0,9.0,-999,-99.99,,,-99.99,,2013-02-20 17:32:00,
2013-02-20 09:42:00,40.0,-99.9,30.05,SSE,162,5.0,9.0,-999,-99.99,,,-99.99,,2013-02-20 17:42:00,
2013-02-20 09:52:00,40.0,-99.9,30.05,South,183,4.0,7.0,-999,-99.99,,,-99.99,,2013-02-20 17:52:00,
2013-02-20 10:02:00,40.0,-99.9,30.05,SSE,147,5.0,9.0,-999,-99.99,,,-99.99,,2013-02-20 18:02:00,
2013-02-20 10:11:00,41.0,-99.9,30.05,SE,144,4.0,6.0,-999,-99.99,,,-99.99,,2013-02-20 18:11:00,
2013-02-20 10:22:00,41.0,-99.9,30.04,SSE,155,4.0,6.0,-999,-99.99,,,-99.99,,2013-02-20 18:22:00,
2013-02-20 10:32:00,41.0,-99.9,30.04,SSE,158,4.0,8.0,-999,-99.99,,,-99.99,,2013-02-20 18:32:00,
2013-02-20 10:42:00,42.0,-99.9,30.04,SSE,160,6.0,10.0,-999,-99.99,,,-99.99,,2013-02-20 18:42:00,
2013-02-20 10:52:00,42.0,-99.9,30.04,South,169,9.0,11.0,-999,-99.99,,,-99.99,,2013-02-20 18:52:00,
2013-02-20 11:02:00,42.0,-99.9,30.04,South,173,7.0,12.0,-999,-99.99,,,-99.99,,2013-02-20 19:02:00,
2013-02-20 11:12:00,42.0,-99.9,30.04,South,173,7.0,12.0,-999,-99.99,,,-99.99,,2013-02-20 19:12:00,
2013-02-20 11:21:00,43.0,-99.9,30.05,South,172,5.0,9.0,-999,-99.99,,,-99.99,,2013-02-20 19:21:00,
2013-02-20 11:32:00,43.0,-99.9,30.05,SSE,163,6.0,10.0,-999,-99.99,,,-99.99,,2013-02-20 19:32:00,
2013-02-20 11:42:00,43.0,-99.9,30.05,SSW,197,6.0,9.0,-999,-99.99,,,-99.99,,2013-02-20 19:42:00,
2013-02-20 11:52:00,43.0,-99.9,30.05,SSW,193,6.0,10.0,-999,-99.99,,,-99.99,,2013-02-20 19:52:00,
2013-02-20 12:01:00,43.0,-99.9,30.05,South,179,5.0,13.0,-999,-99.99,,,-99.99,,2013-02-20 20:01:00,
2013-02-20 12:11:00,43.0,-99.9,30.05,South,175,10.0,14.0,-999,-99.99,,,-99.99,,2013-02-20 20:11:00,
2013-02-20 12:21:00,43.0,-99.9,30.05,South,175,6.0,13.0,-999,-99.99,,,-99.99,,2013-02-20 20:21:00,
2013-02-20 12:31:00,44.0,-99.9,30.04,South,179,6.0,11.0,-999,-99.99,,,-99.99,,2013-02-20 20:31:00,
2013-02-20 12:41:00,44.0,-99.9,30.03,South,171,7.0,12.0,-999,-99.99,,,-99.99,,2013-02-20 20:41:00,
2013-02-20 12:52:00,44.0,-99.9,30.03,South,177,9.0,14.0,-999,-99.99,,,-99.99,,2013-02-20 20:52:00,
2013-02-20 13:01:00,44.0,-99.9,30.03,SSE,167,6.0,12.0,-999,-99.99,,,-99.99,,2013-02-20 21:01:00,
2013-02-20 13:11:00,44.0,-99.9,30.03,South,173,9.0,17.0,-999,-99.99,,,-99.99,,2013-02-20 21:11:00,
2013-02-20 13:21:00,44.0,-99.9,30.03,SSE,168,9.0,12.0,-999,-99.99,,,-99.99,,2013-02-20 21:21:00,
2013-02-20 13:32:00,44.0,-99.9,30.03,SSE,168,9.0,12.0,-999,-99.99,,,-99.99,,2013-02-20 21:32:00,
2013-02-20 13:42:00,44.0,-99.9,30.02,South,170,10.0,14.0,-999,-99.99,,,-99.99,,2013-02-20 21:42:00,
2013-02-20 13:52:00,44.0,-99.9,30.02,South,170,10.0,14.0,-999,-99.99,,,-99.99,,2013-02-20 21:52:00,
2013-02-20 14:02:00,44.0,-99.9,30.02,SSE,168,6.0,10.0,-999,-99.99,,,-99.99,,2013-02-20 22:02:00,
2013-02-20 14:11:00,44.0,-99.9,30.02,SSE,168,6.0,10.0,-999,-99.99,,,-99.99,,2013-02-20 22:11:00,
2013-02-20 14:21:00,44.0,-99.9,30.01,SSE,164,8.0,13.0,-999,-99.99,,,-99.99,,2013-02-20 22:21:00,
2013-02-20 14:32:00,44.0,-99.9,30.01,South,171,6.0,12.0,-999,-99.99,,,-99.99,,2013-02-20 22:32:00,
2013-02-20 14:43:00,45.0,-99.9,30.00,SE,141,6.0,11.0,-999,-99.99,,,-99.99,,2013-02-20 22:43:00,
2013-02-20 14:52:00,45.0,-99.9,30.00,SSE,168,6.0,9.0,-999,-99.99,,,-99.99,,2013-02-20 22:52:00,
2013-02-20 15:01:00,45.0,-99.9,30.00,South,190,5.0,11.0,-999,-99.99,,,-99.99,,2013-02-20 23:01:00,
2013-02-20 15:12:00,45.0,-99.9,30.00,South,191,2.0,9.0,-999,-99.99,,,-99.99,,2013-02-20 23:12:00,
2013-02-20 15:22:00,46.0,-99.9,30.00,South,178,4.0,7.0,-999,-99.99,,,-99.99,,2013-02-20 23:22:00,
2013-02-20 15:32:00,45.0,-99.9,30.00,SSW,211,6.0,7.0,-999,-99.99,,,-99.99,,2013-02-20 23:32:00,
2013-02-20 15:43:00,45.0,-99.9,30.01,SSW,196,6.0,11.0,-999,-99.99,,,-99.99,,2013-02-20 23:43:00,
2013-02-20 15:53:00,45.0,-99.9,30.01,SSW,199,5.0,10.0,-999,-99.99,,,-99.99,,2013-02-20 23:53:00,
2013-02-20 16:03:00,45.0,-99.9,30.01,SSW,206,9.0,13.0,-999,-99.99,,,-99.99,,2013-02-21 00:03:00,
2013-02-20 16:11:00,44.0,-99.9,30.01,SSW,200,5.0,7.0,-999,-99.99,,,-99.99,,2013-02-21 00:11:00,
2013-02-20 16:22:00,44.0,-99.9,30.01,South,190,3.0,7.0,-999,-99.99,,,-99.99,,2013-02-21 00:22:00,
2013-02-20 16:32:00,44.0,-99.9,30.01,South,171,4.0,6.0,-999,-99.99,,,-99.99,,2013-02-21 00:32:00,
2013-02-20 16:42:00,44.0,-99.9,30.01,SSW,198,4.0,7.0,-999,-99.99,,,-99.99,,2013-02-21 00:42:00,
2013-02-20 16:52:00,43.0,-99.9,30.01,South,184,3.0,6.0,-999,-99.99,,,-99.99,,2013-02-21 00:52:00,
2013-02-20 17:01:00,43.0,-99.9,30.01,South,187,2.0,4.0,-999,-99.99,,,-99.99,,2013-02-21 01:01:00,
2013-02-20 17:12:00,43.0,-99.9,30.02,SSW,200,3.0,7.0,-999,-99.99,,,-99.99,,2013-02-21 01:12:00,
2013-02-20 17:22:00,43.0,-99.9,30.02,SSW,194,2.0,4.0,-999,-99.99,,,-99.99,,2013-02-21 01:22:00,
2013-02-20 17:32:00,43.0,-99.9,30.02,SSE,152,1.0,4.0,-999,-99.99,,,-99.99,,2013-02-21 01:32:00,
2013-02-20 17:42:00,43.0,-99.9,30.02,SSW,197,2.0,6.0,-999,-99.99,,,-99.99,,2013-02-21 01:42:00,
2013-02-20 17:52:00,43.0,-99.9,30.02,South,173,3.0,5.0,-999,-99.99,,,-99.99,,2013-02-21 01:52:00,
2013-02-20 18:02:00,43.0,-99.9,30.02,SSE,152,4.0,7.0,-999,-99.99,,,-99.99,,2013-02-21 02:02:00,
2013-02-20 18:11:00,43.0,-99.9,30.02,SSE,163,4.0,6.0,-999,-99.99,,,-99.99,,2013-02-21 02:11:00,
2013-02-20 18:22:00,43.0,-99.9,30.02,SSE,160,6.0,7.0,-999,-99.99,,,-99.99,,2013-02-21 02:22:00,
2013-02-20 18:32:00,43.0,-99.9,30.02,SE,134,5.0,7.0,-999,-99.99,,,-99.99,,2013-02-21 02:32:00,
2013-02-20 18:42:00,43.0,-99.9,30.02,SE,134,5.0,7.0,-999,-99.99,,,-99.99,,2013-02-21 02:42:00,
2013-02-20 18:52:00,43.0,-99.9,30.02,SE,134,5.0,7.0,-999,-99.99,,,-99.99,,2013-02-21 02:52:00,
2013-02-20 19:02:00,43.0,-99.9,30.02,SE,135,4.0,8.0,-999,-99.99,,,-99.99,,2013-02-21 03:02:00,
2013-02-20 19:12:00,43.0,-99.9,30.03,SE,125,4.0,7.0,-999,-99.99,,,-99.99,,2013-02-21 03:12:00,
2013-02-20 19:22:00,43.0,-99.9,30.02,ESE,106,3.0,7.0,-999,-99.99,,,-99.99,,2013-02-21 03:22:00,
2013-02-20 19:32:00,43.0,-99.9,30.02,SE,139,5.0,8.0,-999,-99.99,,,-99.99,,2013-02-21 03:32:00,
2013-02-20 19:42:00,42.0,-99.9,30.02,SE,128,6.0,7.0,-999,-99.99,,,-99.99,,2013-02-21 03:42:00,
2013-02-20 19:52:00,42.0,-99.9,30.02,SE,124,5.0,7.0,-999,-99.99,,,-99.99,,2013-02-21 03:52:00,
2013-02-20 20:01:00,42.0,-99.9,30.02,SE,137,4.0,8.0,-999,-99.99,,,-99.99,,2013-02-21 04:01:00,
2013-02-20 20:11:00,42.0,-99.9,30.02,SSE,147,4.0,6.0,-999,-99.99,,,-99.99,,2013-02-21 04:11:00,
2013-02-20 20:22:00,42.0,-99.9,30.02,SSE,147,3.0,7.0,-999,-99.99,,,-99.99,,2013-02-21 04:22:00,
2013-02-20 20:32:00,42.0,-99.9,30.02,South,173,4.0,5.0,-999,-99.99,,,-99.99,,2013-02-21 04:32:00,
2013-02-20 20:36:00,42.0,-99.9,30.03,South,179,3.0,4.0,-999,-99.99,,,-99.99,,2013-02-21 04:36:00,
2013-02-20 20:42:00,42.0,-99.9,30.02,SSE,154,4.0,8.0,-999,-99.99,,,-99.99,,2013-02-21 04:42:00,
2013-02-20 20:52:00,42.0,-99.9,30.02,SSE,149,3.0,4.0,-999,-99.99,,,-99.99,,2013-02-21 04:52:00,
2013-02-20 21:03:00,42.0,-99.9,30.03,South,179,3.0,4.0,-999,-99.99,,,-99.99,,2013-02-21 05:03:00,
2013-02-20 21:12:00,42.0,-99.9,30.03,South,179,3.0,4.0,-999,-99.99,,,-99.99,,2013-02-21 05:12:00,
2013-02-20 21:22:00,42.0,-99.9,30.03,South,179,3.0,4.0,-999,-99.99,,,-99.99,,2013-02-21 05:22:00,
2013-02-20 22:42:00,42.0,-99.9,30.03,SE,130,3.0,4.0,-999,-99.99,,,-99.99,,2013-02-21 06:42:00,
2013-02-20 22:52:00,42.0,-99.9,30.03,SSE,159,2.0,5.0,-999,-99.99,,,-99.99,,2013-02-21 06:52:00,
2013-02-20 23:01:00,42.0,-99.9,30.04,SSW,193,2.0,3.0,-999,-99.99,,,-99.99,,2013-02-21 07:01:00,
2013-02-20 23:11:00,42.0,-99.9,30.04,SW,216,3.0,3.0,-999,-99.99,,,-99.99,,2013-02-21 07:11:00,
2013-02-20 23:22:00,42.0,-99.9,30.04,WSW,244,2.0,3.0,-999,-99.99,,,-99.99,,2013-02-21 07:22:00,
2013-02-20 23:32:00,42.0,-99.9,30.04,SSW,208,2.0,3.0,-999,-99.99,,,-99.99,,2013-02-21 07:32:00,
2013-02-20 23:42:00,42.0,-99.9,30.03,SE,132,3.0,4.0,-999,-99.99,,,-99.99,,2013-02-21 07:42:00,
2013-02-20 23:52:00,42.0,-99.9,30.03,ESE,121,3.0,4.0,-999,-99.99,,,-99.99,,2013-02-21 07:52:00,